Regional Weather Roundup
Issued by NWS

Home | Current Version | Previous Version | Graphics & Text | Print | Product List | Glossary On
Versions: 1 2 3 4 5 6 7 8 9 10 11 12 13 14 15 16 17 18 19 20 21 22 23 24 25 26 27 28 29 30 31 32 33 34 35 36 37 38 39 40 41 42 43 44 45 46 47 48 49 50
000
ASUS43 KLMK 291110
RWRKY
KENTUCKY REGIONAL WEATHER ROUNDUP
NATIONAL WEATHER SERVICE LOUISVILLE KY
700 AM EDT THU JUN 29 2017

NOTE "FAIR" INDICATES FEW OR NO CLOUDS BELOW 12,000 FEET
WITH NO SIGNIFICANT WEATHER AND/OR OBSTRUCTIONS TO VISIBILITY.

KYZ001>023-026-027-061>063-070>075-291200-
WESTERN AND SOUTH CENTRAL KENTUCKY

CITY           SKY/WX    TMP DP  RH WIND       PRES   REMARKS
PADUCAH        CLEAR     71  64  78 S5        30.00R
HENDERSON      CLEAR     69  64  84 S7        30.01S
OWENSBORO      MOCLDY    68  63  84 S7        30.03R
HOPKINSVILLE   CLEAR     71  64  80 S7        30.05R
BOWLING GREEN  CLOUDY    71  63  75 S8        30.07R
GLASGOW        PTCLDY    69  61  76 S5        30.08S
$$

KYZ024-025-028>034-038-045-046-053-291200-
NORTH CENTRAL KENTUCKY

CITY           SKY/WX    TMP DP  RH WIND       PRES   REMARKS
LOUISVILLE/SDF CLOUDY    73  60  63 S9        30.04R
LOUISVILLE/LOU CLOUDY    70  60  70 S6        30.05R
FORT KNOX      CLOUDY    65  59  79 S5        30.04R
$$

KYZ035>037-039>044-047>052-055>060-089>105-291200-
NORTHEAST KENTUCKY

CITY           SKY/WX    TMP DP  RH WIND       PRES   REMARKS
LEXINGTON      CLEAR     67  58  72 S10       30.09R
COVINGTON      MOCLDY    66  58  75 S9        30.03S
FRANKFORT      CLEAR     68  58  70 S5        30.06R
$$

KYZ054-064>069-076>088-106>120-291200-
SOUTHEAST KENTUCKY

CITY           SKY/WX    TMP DP  RH WIND       PRES   REMARKS
JACKSON        CLEAR     65  57  75 CALM      30.14R
LONDON         CLOUDY    60  56  86 CALM      30.14R
SOMERSET       CLOUDY    66  59  77 S3        30.14R
MIDDLESBORO    CLOUDY    58  57  99 CALM      30.17S
MONTICELLO     PTSUNNY   72  63  73 VRB3      30.14R
$$




USA.gov is the U.S. government's official web portal to all federal, state and local government web resources and services.